[[{"header":{"parameterUnit":"m.s-1","parameterCategory":1,"la1":30.2991,"la2":30.254,"lo1":-89.0895,"lo2":-89.0444,"dy":0.0017,"dx":0.0017,"nx":28,"ny":28,"refTime":"2025-12-12T03:00:00:Z","depth":0,"parameterNumber":2,"parameterNumberName":"U-component_of_WINDS"},"data":[0,0,0,0,0,0,0,0,0,0,0,0,0,0,0,0,0,0,0,0,0,0,0,0,0,0,0,0,0,0,0,0,0,0,0,0,0,0,0,0,0,0,0,0,0,0,0,0,0,0,0,0,0,0,0,0,0,0,1.0121,1.0122,0,1.0191,1.0191,1.0192,1.0211,1.0211,1.0211,1.021,1.0279,1.0281,1.0283,0,0,0,0,0,0,0,0,0,0,0,0,0,1.0001,1.0003,1.0121,1.0122,1.0123,1.0191,1.0192,1.0192,1.0212,1.0211,1.0211,1.021,1.0278,1.0281,1.0284,0,0,0,0,0,0,0,0,0,0,0,0,0,1.006,1.0004,1.0121,1.0141,1.0143,1.019,1.0192,1.0193,1.0212,1.0211,1.021,1.021,1.0278,1.0281,1.0284,1.0316,0,0,1.0294,1.0295,0,0,0,0,0,0,0,0,1.0056,1.0064,1.0137,1.0139,1.0142,1.0192,1.0174,1.0234,1.0212,1.0186,1.021,1.021,1.025,1.0256,1.027,1.0319,1.0322,1.0294,1.0296,1.0298,1.0299,0,0,0,0,0,0,0,1.0052,1.0061,1.0149,1.0138,1.0141,1.0145,1.0152,1.0186,1.022,1.0188,1.0189,1.0197,1.0252,1.0267,1.0272,1.0323,1.0294,1.0297,1.0299,1.0301,1.0399,1.04,0,0,0,0,0,0,1.0045,1.0058,1.0146,1.0151,1.0097,1.0147,1.0156,1.0176,1.022,1.0226,1.0198,1.0198,1.0262,1.0268,1.0274,1.0313,1.0298,1.0301,1.0303,1.0399,1.0399,1.04,0,0,0,0,0,0,1.0043,1.0053,1.0144,1.0105,1.0117,1.015,1.0173,1.0178,1.0193,1.0228,1.0234,1.0207,1.0261,1.027,1.0305,1.0316,1.0302,1.0305,1.0398,1.0399,1.04,1.0392,0,0,0,0,0,0,1.0039,1.0052,1.0066,1.0105,1.0119,1.0174,1.0174,1.018,1.0199,1.02,1.0238,1.0244,1.0262,1.03,1.0308,1.032,1.0308,1.0397,1.0398,1.0399,1.0391,1.0393,1.0393,0,0,0,0,0,1.0035,1.0061,1.0066,1.0077,1.0137,1.0175,1.0183,1.0203,1.02,1.0213,1.0235,1.0243,1.0313,1.0304,1.0313,1.0326,1.0396,1.0398,1.0399,1.0391,1.0392,1.0393,0,0,0,0,0,0,1.0022,1.0067,1.0073,1.0113,1.014,1.0178,1.0196,1.0204,1.0233,1.0232,1.0256,1.0264,1.0297,1.0315,1.0304,1.0358,1.0355,1.0358,1.0345,1.0347,1.0348,1.0343,1.0311,0,0,0,0,0,1.0024,1.0053,1.0089,1.0121,1.0134,1.0162,1.018,1.0193,1.0222,1.0234,1.0258,1.0285,1.0313,1.0331,1.0359,1.0394,1.0401,1.0407,1.0408,1.0409,1.0411,1.0429,1.0432,1.0405,1.0405,1.0405,0,0,1.0028,1.0056,1.0072,1.0119,1.0142,1.0169,1.0172,1.0202,1.0222,1.0238,1.0273,1.0291,1.0322,1.0357,1.0374,1.0373,1.042,1.0411,1.0411,1.0413,1.0431,1.0433,1.0436,1.0406,1.0406,1.0405,0,0,1.0049,1.0074,1.0102,1.0124,1.0158,1.0177,1.0183,1.022,1.0232,1.0268,1.0279,1.0303,1.0351,1.0373,1.039,1.0416,1.0423,1.0424,1.043,1.0447,1.0449,1.0451,1.0459,1.0462,1.0427,1.0427,1.0427,0,1.005,1.0093,1.0115,1.0144,1.0163,1.0178,1.0205,1.0226,1.0267,1.0279,1.0278,1.0337,1.0359,1.0398,1.0404,1.0418,1.0425,1.042,1.0447,1.0449,1.0451,1.0459,1.0462,1.0426,1.0426,1.0426,1.0427,0,1.0091,1.0121,1.0139,1.0178,1.0199,1.0227,1.0251,1.027,1.028,1.0298,1.0332,1.0359,1.0392,1.0402,1.0413,1.0442,1.044,1.0443,1.044,1.0453,1.0461,1.0464,1.0426,1.0426,1.0426,1.0426,0,0,1.0108,1.0157,1.0164,1.0181,1.0218,1.0241,1.0268,1.03,1.0315,1.0342,1.0364,1.0403,1.0405,1.0425,1.0438,1.0453,1.0469,1.0453,1.0454,1.0454,1.0501,1.0498,1.0502,1.0475,1.0475,1.0476,1.0498,0,1.0133,1.0184,1.0203,1.0243,1.027,1.0283,1.0307,1.0331,1.0348,1.0372,1.039,1.0417,1.0418,1.0429,1.0445,1.0464,1.0479,1.0463,1.0494,1.0495,1.0486,1.0506,1.0504,1.0524,1.0501,1.0502,1.0502,0,1.017,1.0197,1.024,1.0273,1.0284,1.0305,1.0335,1.0358,1.0385,1.0396,1.0416,1.0428,1.0455,1.045,1.0487,1.0475,1.0489,1.05,1.0501,1.0505,1.0499,1.0509,1.0531,1.0533,1.0507,1.0507,1.0506,0,1.0176,1.0223,1.0255,1.0269,1.0308,1.0322,1.0339,1.0365,1.0383,1.0408,1.0419,1.0447,1.0462,1.0483,1.0501,1.0496,1.0535,1.0533,1.0544,1.0543,1.0552,1.0551,1.0575,1.0561,1.0561,1.0561,1.0561,0,1.0202,1.0227,1.0258,1.0277,1.0305,1.0326,1.0353,1.037,1.0393,1.0415,1.0429,1.0448,1.0471,1.0493,1.0508,1.0535,1.0542,1.055,1.0554,1.0549,1.0548,1.0558,1.0557,1.0562,1.0562,1.0562,1.0562,0,1.0214,1.0235,1.027,1.0304,1.0312,1.0332,1.036,1.0378,1.0394,1.0421,1.0429,1.0454,1.0481,1.0501,1.0536,1.0545,1.0574,1.0577,1.0565,1.0566,1.0576,1.0574,1.0607,1.0612,1.0595,1.0596,1.0596,0,1.0228,1.0248,1.0283,1.0299,1.0316,1.0341,1.0358,1.0379,1.0396,1.0427,1.0441,1.0469,1.0492,1.0533,1.0554,1.058,1.0584,1.0594,1.0588,1.0582,1.0583,1.0581,1.0583,1.0594,1.0594,1.0595,1.0595,0,1.0252,1.0261,1.0286,1.0315,1.0335,1.0358,1.0382,1.0393,1.0417,1.0436,1.0463,1.0481,1.0516,1.0542,1.057,1.0585,1.0593,1.0596,1.06,1.0595,1.0586,1.059,1.0566,1.0595,1.0595,1.0595,1.0595,1.0595,1.0265,1.0283,1.031,1.0337,1.0356,1.0377,1.0395,1.0414,1.0437,1.0467,1.0477,1.0505,1.053,1.0567,1.0583,1.0604,1.0604,1.061,1.0611,1.0612,1.0611,1.0583,1.0609,1.0609,1.0609,1.0609,1.0609,0,1.0288,1.0306,1.0331,1.0362,1.0383,1.0389,1.0414,1.0431,1.0455,1.0478,1.05,1.053,1.0556,1.0578,1.0604,1.0616,1.062,1.0622,1.0621,1.0624,1.061,1.0604,1.0618,1.0618,1.0618,1.0618,1.0618,1.0618,1.0303,1.0332,1.0344,1.0383,1.04,1.0428,1.0441,1.046,1.0478,1.0511,1.0533,1.0547,1.0569,1.0596,1.0619,1.0624,1.0633,1.0634,1.064,1.0627,1.0626,1.0624,1.0619,1.0636,1.0636,1.0652,1.0652,1.0653]},{"header":{"parameterUnit":"m.s-1","parameterCategory":1,"la1":30.2991,"la2":30.254,"lo1":-89.0895,"lo2":-89.0444,"dy":0.0017,"dx":0.0017,"nx":28,"ny":28,"refTime":"2025-12-12T03:00:00:Z","depth":0,"parameterNumber":3,"parameterNumberName":"V-component_of_WINDS"},"data":[0,0,0,0,0,0,0,0,0,0,0,0,0,0,0,0,0,0,0,0,0,0,0,0,0,0,0,0,0,0,0,0,0,0,0,0,0,0,0,0,0,0,0,0,0,0,0,0,0,0,0,0,0,0,0,0,0,0,2.7913,2.7914,0,2.7947,2.7948,2.7948,2.7899,2.7897,2.7896,2.7894,2.7929,2.7931,2.7934,0,0,0,0,0,0,0,0,0,0,0,0,0,2.7804,2.7807,2.7913,2.7914,2.7914,2.7947,2.7948,2.7948,2.7899,2.7897,2.7895,2.7893,2.7928,2.7931,2.7934,0,0,0,0,0,0,0,0,0,0,0,0,0,2.7846,2.7808,2.7913,2.7894,2.7892,2.7947,2.7948,2.7948,2.79,2.7897,2.7895,2.7892,2.7927,2.793,2.7934,2.8009,0,0,2.7946,2.7947,0,0,0,0,0,0,0,0,2.7844,2.785,2.7896,2.7895,2.7894,2.7916,2.7922,2.7969,2.79,2.7897,2.7894,2.7891,2.7927,2.793,2.7942,2.8011,2.8012,2.7946,2.7948,2.795,2.7951,0,0,0,0,0,0,0,2.7841,2.7849,2.7927,2.7897,2.7895,2.7883,2.7886,2.7931,2.7926,2.7897,2.7894,2.7898,2.7925,2.7939,2.7943,2.8013,2.7946,2.7949,2.7952,2.7953,2.8142,2.8145,0,0,0,0,0,0,2.7841,2.7847,2.7925,2.7928,2.7862,2.7887,2.789,2.7912,2.7925,2.7925,2.79,2.7896,2.7934,2.7938,2.7944,2.8031,2.795,2.7954,2.7956,2.814,2.8143,2.8146,0,0,0,0,0,0,2.7839,2.7848,2.7924,2.7886,2.7895,2.7891,2.7916,2.7914,2.7927,2.7928,2.7927,2.7915,2.7932,2.7938,2.7993,2.8031,2.7955,2.7959,2.8136,2.8141,2.8144,2.8207,0,0,0,0,0,0,2.7836,2.7848,2.7877,2.7887,2.7897,2.7973,2.7918,2.7916,2.7934,2.7928,2.7941,2.7941,2.793,2.7987,2.7997,2.8035,2.7962,2.8133,2.8138,2.8143,2.8201,2.8212,2.8222,0,0,0,0,0,2.7832,2.7894,2.7879,2.7889,2.7933,2.7976,2.7981,2.7968,2.7937,2.7966,2.7966,2.794,2.8026,2.7993,2.8003,2.8044,2.813,2.8137,2.8143,2.8196,2.821,2.8222,0,0,0,0,0,0,2.7889,2.7895,2.7878,2.7945,2.796,2.7967,2.8003,2.7983,2.8007,2.8001,2.7983,2.7987,2.8044,2.805,2.8013,2.8116,2.8073,2.8081,2.811,2.8123,2.8134,2.8131,2.7965,0,0,0,0,0,2.7909,2.7943,2.7946,2.8005,2.8013,2.8007,2.8025,2.8013,2.8028,2.8034,2.8039,2.8054,2.8084,2.8104,2.8132,2.8202,2.8203,2.8234,2.8245,2.8253,2.826,2.8296,2.8309,2.8166,2.8166,2.8166,0,0,2.7951,2.7958,2.7981,2.8016,2.8027,2.8061,2.8013,2.8053,2.8078,2.804,2.8091,2.8095,2.8111,2.8173,2.82,2.8179,2.83,2.8261,2.8268,2.827,2.8303,2.8317,2.8329,2.8171,2.817,2.8169,0,0,2.8045,2.8055,2.8104,2.8115,2.8131,2.8126,2.8137,2.8148,2.8148,2.8199,2.8171,2.8201,2.8254,2.8265,2.8278,2.8375,2.8352,2.8384,2.8439,2.8473,2.8484,2.8494,2.8527,2.8539,2.8392,2.8392,2.8392,0,2.8095,2.8147,2.8131,2.8172,2.8188,2.8155,2.8203,2.8215,2.8239,2.825,2.8226,2.829,2.8298,2.8361,2.8385,2.8397,2.8408,2.8382,2.8484,2.8494,2.8503,2.8533,2.8546,2.8396,2.8395,2.8395,2.8395,0,2.8207,2.8243,2.8281,2.8304,2.8324,2.8369,2.8359,2.838,2.8366,2.8364,2.8415,2.8424,2.8452,2.8466,2.8454,2.8527,2.8513,2.8487,2.8443,2.852,2.8549,2.8561,2.8401,2.84,2.8399,2.8398,0,0,2.8338,2.8351,2.8365,2.8374,2.8388,2.8416,2.8458,2.8485,2.8503,2.8521,2.8555,2.86,2.8575,2.8589,2.8577,2.8608,2.8681,2.8578,2.8578,2.8595,2.8761,2.8779,2.8793,2.8666,2.8669,2.867,2.8759,0,2.8431,2.8504,2.849,2.8561,2.8593,2.8561,2.8598,2.861,2.8609,2.8635,2.8633,2.8664,2.863,2.8638,2.8667,2.8666,2.8714,2.866,2.8697,2.8698,2.8692,2.8808,2.8829,2.8912,2.877,2.8772,2.8773,0,2.8548,2.8569,2.8643,2.865,2.8663,2.8696,2.8719,2.8745,2.8758,2.8754,2.877,2.8752,2.8793,2.8749,2.8804,2.8768,2.8782,2.8784,2.8786,2.8788,2.874,2.8812,2.8938,2.895,2.8791,2.879,2.8788,0,2.8634,2.8681,2.8731,2.874,2.875,2.8774,2.8779,2.8789,2.8805,2.8825,2.8835,2.886,2.8873,2.8892,2.888,2.885,2.8937,2.8893,2.8934,2.8934,2.8953,2.8952,2.9081,2.8965,2.8964,2.8964,2.8964,0,2.8738,2.8784,2.8769,2.8799,2.8849,2.8833,2.8882,2.8884,2.8893,2.8922,2.8897,2.8925,2.8909,2.8935,2.8927,2.8972,2.8979,2.8977,2.8973,2.8978,2.8978,2.8986,2.898,2.8967,2.8967,2.8966,2.8966,0,2.8842,2.8834,2.8886,2.8891,2.8893,2.8929,2.8933,2.8961,2.8957,2.8994,2.9002,2.8996,2.9026,2.9016,2.9049,2.9042,2.91,2.909,2.9096,2.9093,2.9134,2.9129,2.9272,2.9289,2.9163,2.9164,2.9165,0,2.8909,2.8943,2.8951,2.8969,2.8975,2.9005,2.9021,2.9005,2.9023,2.9039,2.9064,2.9092,2.9113,2.9161,2.9159,2.9183,2.9173,2.9221,2.9177,2.9179,2.9172,2.9169,2.9172,2.923,2.9231,2.9233,2.9234,0,2.9026,2.902,2.9044,2.9067,2.9086,2.9103,2.9118,2.9134,2.9119,2.914,2.917,2.9186,2.9218,2.9245,2.9266,2.9271,2.925,2.9248,2.9258,2.9263,2.9263,2.9262,2.9118,2.9244,2.9243,2.9243,2.9242,2.9242,2.9112,2.9141,2.915,2.9177,2.9186,2.92,2.9226,2.9224,2.9249,2.9273,2.9263,2.9296,2.9306,2.9333,2.934,2.9366,2.9347,2.9363,2.9366,2.937,2.9374,2.9261,2.937,2.937,2.9369,2.9369,2.9369,0,2.9227,2.9231,2.9256,2.9277,2.9298,2.9276,2.929,2.9309,2.9339,2.935,2.9371,2.9404,2.9429,2.9429,2.9452,2.9473,2.9463,2.9479,2.9477,2.9478,2.9391,2.9379,2.9486,2.9486,2.9486,2.9486,2.9486,2.9486,2.9289,2.9335,2.9329,2.9379,2.9382,2.9415,2.9425,2.9437,2.9445,2.9483,2.9504,2.9503,2.9509,2.9533,2.9555,2.9554,2.9563,2.9582,2.9577,2.9496,2.9484,2.9473,2.9461,2.9585,2.9585,2.9662,2.9663,2.9663]}]]